Location: Newark
(15.4608°S, 41.1635°W)
Time: 21:42:50
(UTC+00:00)

Explorer 11/Cluster Stage 4 - Pass Details

Date: 05 August 2021
Orbit: 467 x 1256 km, 28.8° (Epoch: 24 September)

Event Time Altitude Azimuth Distance (km) Brightness Sun altitude
Rises 21:44:16 0° 264° (W) 3,170 11.1 -16.9°
Reaches altitude 10° 21:47:24 10° 250° (WSW) 2,095 9.6 -17.6°
Maximum altitude 21:51:07 22° 199° (SSW) 1,315 7.8 -18.5°
Enters shadow 21:52:44 18° 168° (SSE) 1,422 7.7 -18.9°
